Motorsport-Marktplatz
Kart-Mechaniker/in 100%
Preis auf Anfrag
Kart-Mechaniker/in 100% - Die Kartteam Meier GmbH importiert und vertreibt Produkte im schweizer Kartsport. Neben dem Ladenver[...]
ANZEIGE
 
ANZEIGE
 
 
Motorsport-Total.com @Twitter

Zwitschern mit viel PS!

Die wichtigsten Top-News erhalten Sie vorab über unseren Twitter-Channel @MST_Hot! Alle weiteren News aus unseren Rubriken finden Sie in unseren Twitter-Channels. Wann dürfen wir Ihnen etwas zwitschern?
Alle Twitter-Channels
 
ANZEIGE
 
 
Apps zu Formel 1, MotoGP, DTM und Co. für Android, iOS und Windows Phone
Formel-1-Newsletter

Formel-1-News in Ihr E-Mail-Fach!

Abonnieren Sie jetzt den kostenlosen täglichen und/oder wöchentlichen Formel-1-Newsletter von Motorsport-Total.com!
Jetzt Newsletter abonnieren
Formel-1-Quiz
Sie sind hier: Home > Formel 1 > Ergebnisse > Japan 2017

 GP Japan in Suzuka / Qualifying

Session-Informationen im Überblick
Datum 07. Oktober 2017 Wetter bewölkt
Zeit (MESZ) 08:00 Uhr Lufttemp. 22-23°C
Ortszeit 15:00 Uhr Luftfeucht. 71-77%
Teilnehmer 20 Luftdruck 1.013 mBar
Rekord Rennen 1:31.540 Minuten Asphalt 26-27°C
Rekord Qualifying 1:29.599 Minuten Wind 1 m/s, Norden
Einzel-Sessions
Gesamtklassement
Klassement der dritten Qualifyingsession
Klassement der zweiten Qualifyingsession
Klassement der ersten Qualifyingsession

Gesamtklassement

Pos. Nr. Fahrer Team Zeit Abstand auf V. Rnd.
1 44 L. Hamilton Mercedes 1:27.319     6
2 77 V. Bottas Mercedes 1:27.651 +0:00.332 +0:00.332 7
3 5 S. Vettel Ferrari 1:27.791 +0:00.472 +0:00.140 7
4 3 D. Ricciardo Red Bull 1:28.306 +0:00.987 +0:00.515 6
5 33 M. Verstappen Red Bull 1:28.332 +0:01.013 +0:00.026 6
6 7 K. Räikkönen Ferrari 1:28.498 +0:01.179 +0:00.166 5
7 31 E. Ocon Force India 1:29.111 +0:01.792 +0:00.613 6
8 11 S. Perez Force India 1:29.260 +0:01.941 +0:00.149 6
9 19 F. Massa Williams 1:29.480 +0:02.161 +0:00.220 6
10 14 F. Alonso McLaren 1:30.687 +0:03.368 +0:01.207 3
11 2 S. Vandoorne McLaren 1:29.778     6
12 27 N. Hülkenberg Renault 1:29.879 +0:00.101 +0:00.101 6
13 20 K. Magnussen Haas F1 1:29.972 +0:00.194 +0:00.093 6
14 30 J. Palmer Renault 1:30.022 +0:00.244 +0:00.050 6
15 55 C. Sainz Toro Rosso 1:30.413 +0:00.635 +0:00.391 6
16 8 R. Grosjean Haas F1 1:30.849     5
17 10 P. Gasly Toro Rosso 1:31.317 +0:00.468 +0:00.468 7
18 18 L. Stroll Williams 1:31.409 +0:00.560 +0:00.092 6
19 9 M. Ericsson Sauber 1:31.597 +0:00.748 +0:00.188 7
20 94 P. Wehrlein Sauber 1:31.885 +0:01.036 +0:00.288 7
  107-Prozent-Zeit 1:35.280
auf V. = auf Vordermann, Rnd. = Runden

 

Klassement der dritten Qualifyingsession

Pos. Nr. Fahrer Team Zeit Abstand auf V. Rnd.
1 44 L. Hamilton Mercedes 1:27.319     6
2 77 V. Bottas Mercedes 1:27.651 +0:00.332 +0:00.332 7
3 5 S. Vettel Ferrari 1:27.791 +0:00.472 +0:00.140 7
4 3 D. Ricciardo Red Bull 1:28.306 +0:00.987 +0:00.515 6
5 33 M. Verstappen Red Bull 1:28.332 +0:01.013 +0:00.026 6
6 7 K. Räikkönen Ferrari 1:28.498 +0:01.179 +0:00.166 5
7 31 E. Ocon Force India 1:29.111 +0:01.792 +0:00.613 6
8 11 S. Perez Force India 1:29.260 +0:01.941 +0:00.149 6
9 19 F. Massa Williams 1:29.480 +0:02.161 +0:00.220 6
10 14 F. Alonso McLaren 1:30.687 +0:03.368 +0:01.207 3
  107-Prozent-Zeit 1:33.431
auf V. = auf Vordermann, Rnd. = Runden

 

Klassement der zweiten Qualifyingsession

Pos. Nr. Fahrer Team Zeit Abstand auf V. Rnd.
1 44 L. Hamilton Mercedes 1:27.819     5
2 5 S. Vettel Ferrari 1:28.225 +0:00.406 +0:00.406 6
3 77 V. Bottas Mercedes 1:28.543 +0:00.724 +0:00.318 5
4 33 M. Verstappen Red Bull 1:28.747 +0:00.928 +0:00.204 3
5 3 D. Ricciardo Red Bull 1:28.935 +0:01.116 +0:00.188 3
6 7 K. Räikkönen Ferrari 1:29.079 +0:01.260 +0:00.144 5
7 31 E. Ocon Force India 1:29.199 +0:01.380 +0:00.120 6
8 11 S. Perez Force India 1:29.343 +0:01.524 +0:00.144 6
9 19 F. Massa Williams 1:29.687 +0:01.868 +0:00.344 6
10 14 F. Alonso McLaren 1:29.749 +0:01.930 +0:00.062 6
11 2 S. Vandoorne McLaren 1:29.778 +0:01.959 +0:00.029 6
12 27 N. Hülkenberg Renault 1:29.879 +0:02.060 +0:00.101 6
13 20 K. Magnussen Haas F1 1:29.972 +0:02.153 +0:00.093 6
14 30 J. Palmer Renault 1:30.022 +0:02.203 +0:00.050 6
15 55 C. Sainz Toro Rosso 1:30.413 +0:02.594 +0:00.391 6
  107-Prozent-Zeit 1:33.966
auf V. = auf Vordermann, Rnd. = Runden

 

Klassement der ersten Qualifyingsession

Pos. Nr. Fahrer Team Zeit Abstand auf V. Rnd.
1 44 L. Hamilton Mercedes 1:29.047     7
2 7 K. Räikkönen Ferrari 1:29.163 +0:00.116 +0:00.116 5
3 33 M. Verstappen Red Bull 1:29.181 +0:00.134 +0:00.018 3
4 77 V. Bottas Mercedes 1:29.332 +0:00.285 +0:00.151 5
5 5 S. Vettel Ferrari 1:29.352 +0:00.305 +0:00.020 6
6 3 D. Ricciardo Red Bull 1:29.475 +0:00.428 +0:00.123 4
7 11 S. Perez Force India 1:29.696 +0:00.649 +0:00.221 5
8 31 E. Ocon Force India 1:30.115 +0:01.068 +0:00.419 4
9 27 N. Hülkenberg Renault 1:30.252 +0:01.205 +0:00.137 4
10 19 F. Massa Williams 1:30.352 +0:01.305 +0:00.100 4
11 30 J. Palmer Renault 1:30.516 +0:01.469 +0:00.164 4
12 14 F. Alonso McLaren 1:30.525 +0:01.478 +0:00.009 4
13 55 C. Sainz Toro Rosso 1:30.565 +0:01.518 +0:00.040 5
14 2 S. Vandoorne McLaren 1:30.654 +0:01.607 +0:00.089 5
15 20 K. Magnussen Haas F1 1:30.774 +0:01.727 +0:00.120 5
16 8 R. Grosjean Haas F1 1:30.849 +0:01.802 +0:00.075 5
17 10 P. Gasly Toro Rosso 1:31.317 +0:02.270 +0:00.468 7
18 18 L. Stroll Williams 1:31.409 +0:02.362 +0:00.092 6
19 9 M. Ericsson Sauber 1:31.597 +0:02.550 +0:00.188 7
20 94 P. Wehrlein Sauber 1:31.885 +0:02.838 +0:00.288 7
  107-Prozent-Zeit 1:35.280
auf V. = auf Vordermann, Rnd. = Runden

 

 

 
Nach oben